Regional Weather Roundup
Issued by NWS San Angelo, TX

Home | Current Version | Previous Version | Text Only | Print | Product List | Glossary On
Versions: 1 2 3 4 5 6 7 8 9 10 11 12 13 14 15 16 17 18 19 20 21 22 23 24 25 26 27 28 29 30 31 32 33 34 35 36 37 38 39 40 41 42 43 44 45 46 47 48 49 50
000
ASUS44 KSJT 200810
RWRSJT
WEST CENTRAL TEXAS REGIONAL WEATHER ROUNDUP
NATIONAL WEATHER SERVICE SAN ANGELO TX
300 AM CDT SAT SEP 20 2014

NOTE: "FAIR" INDICATES FEW OR NO CLOUDS BELOW 12,000 FEET WITH NO
SIGNIFICANT WEATHER AND/OR OBSTRUCTIONS TO VISIBILITY.

TXZ049-054-064>066-071>073-076>078-098-099-113-114-127-128-139-140-
154-155-168>170-200900
...LOCATIONS ACROSS WEST CENTRAL TEXAS...

CITY           SKY/WX    TMP DP  RH WIND       PRES   REMARKS
SAN ANGELO     MOCLDY    73  70  90 SE5       29.96S
ABILENE        CLOUDY    73  70  90 SE3       29.98F
DYESS AFB      CLOUDY    72  65  78 SE6       29.97S
JUNCTION       CLOUDY    73  71  93 E3        29.97R
SWEETWATER     CLOUDY    72  71  98 SE7       30.02S
BROWNWOOD      CLOUDY    73  72  94 SE7       29.97S
COLEMAN        CLOUDY    72  70  94 CALM      29.98S FOG
SONORA         PTCLDY    72  70  94 CALM      30.01S
OZONA          FAIR      73  68  83 SE9       30.00R
BRADY          NOT AVBL
$$

TEXAS PANHANDLE/OKLAHOMA PANHANDLE

CITY           SKY/WX    TMP DP  RH WIND       PRES   REMARKS
AMARILLO       MOCLDY    63  62  97 S6        30.06S
BORGER         PTCLDY    67  62  84 SW3       30.04R
CANADIAN       PTCLDY    70  65  85 S5        30.01R
DALHART        CLOUDY    66  64  93 SW12      30.08S
DUMAS          SUNNY     63  62  96 SW7       30.07R
GUYMON         NOT AVBL
HEREFORD       CLOUDY    67  67  98 S6        30.08S
PAMPA          MOSUNNY   65  62  89 S10       30.05S
PERRYTON       CLEAR     64  59  86 S6        30.03R
$$

SOUTHERN PANHANDLE/SOUTH PLAINS/ROLLING PLAINS

CITY           SKY/WX    TMP DP  RH WIND       PRES   REMARKS
LUBBOCK        LGT RAIN  69  67  93 SE10      30.02F FOG
SNYDER         LGT RAIN  69  69  97 E3        29.99F
CHILDRESS      PTCLDY    68  65  90 S5        30.00S
SEMINOLE       CLOUDY    69  68  98 CALM      30.02S
$$

PERMIAN BASIN

CITY           SKY/WX    TMP DP  RH WIND       PRES   REMARKS
MIDLAND        CLOUDY    71  69  93 SE8       29.98R
ODESSA         LGT RAIN  71  69  93 SE7       29.98S
WINK           LGT RAIN  72  70  93 CALM      29.95F
$$

FAR WEST/SOUTHWEST MOUNTAINS/TRANS PECOS

CITY           SKY/WX    TMP DP  RH WIND       PRES   REMARKS
ALPINE         MOSUNNY   67  64  91 S5        30.11R
DRYDEN           N/A     80  71  74 E13       29.93R
EL PASO        PTCLDY    71  65  81 NE6       30.00S
FORT STOCKTON  CLOUDY    72  69  90 S7        29.95F
GUADALUPE PASS PTCLDY    63  63 100 NE10        N/A  FOG
MARFA          PTCLDY    61  61 100 CALM      30.10R
PECOS          CLOUDY    69  67  92 NW7       29.95S
$$

DALLAS/FORT WORTH METROPLEX

CITY           SKY/WX    TMP DP  RH WIND       PRES   REMARKS
DFW AIRPORT    MOCLDY    76  70  82 SE7       29.95S
FTW MEACHAM    MOCLDY    77  69  76 SE7       29.95S
DAL-EXECUTIVE  CLEAR     74  70  87 SE6       29.96R
GRAND PRAIRIE  PTCLDY    74  68  80 CALM      29.98S
ADDISON        PTCLDY    77  69  77 SE8       29.98S
MESQUITE       SUNNY     73  70  91 SE3       29.97R
LANCASTER      PTSUNNY   72  68  88 CALM      29.97S FOG
$$

NORTH CENTRAL TEXAS

CITY           SKY/WX    TMP DP  RH WIND       PRES   REMARKS
SHRMAN/DENISON SUNNY     72  68  88 E5        29.99R
GAINESVILLE    CLEAR     71  69  93 CALM      29.99S
BRIDGEPORT     MOSUNNY   72  66  82 CALM      29.98S
DENTON         CLEAR     74  70  87 SE6       29.96R
WAXAHACHIE     SUNNY     73  68  86 SE3       29.98S
GRANBURY       PTSUNNY   76  71  83 SE6       29.97S
$$

WESTERN NORTH TEXAS

CITY           SKY/WX    TMP DP  RH WIND       PRES   REMARKS
WICHITA FALLS  PTCLDY    72  68  87 SE8       29.96S
VERNON         MOSUNNY   72  66  79 E3        29.98R
BRECKENRIDGE   PTSUNNY   75  69  82 SE5       29.96S
COMANCHE       CLOUDY    72  72 100 SE7       29.97S
$$

CENTRAL AND SOUTH CENTRAL TEXAS

CITY           SKY/WX    TMP DP  RH WIND       PRES   REMARKS
AUSTIN/BERGSTM CLOUDY    76  74  93 SE3       29.93S
WACO           PTCLDY    72  71  97 E6        29.95S
HILLSBORO      MOSUNNY   74  70  86 E9        29.96S
TEMPLE         CLOUDY    73  70  88 SE7       29.95R
KILLEEN-GRAY   CLOUDY    75  72  88 SE7       29.94S
FORT HOOD      CLOUDY    75  73  94 SE5       29.96R
GEORGETOWN     CLOUDY    73  73 100 SE5       29.95S
LAGO VISTA     LGT RAIN  75  73  92 S5        29.96S
SAN MARCOS     MOCLDY    73  70  88 CALM      29.94S
NEW BRAUNFELS  MOCLDY    75  73  93 SE5       29.93R
RANDOLPH AFB   MOCLDY    75  73  94 E5        29.93F
SAN ANTONIO    MOCLDY    76  73  91 SE8       29.94S
STINSON        MOCLDY    76  73  91 E5        29.91F
PLEASANTON     NOT AVBL
LA GRANGE      CLEAR     76  75  99 CALM      29.91F
GIDDINGS       SUNNY     73  72  95 CALM      29.97F FOG
$$

EAST TEXAS

CITY           SKY/WX    TMP DP  RH WIND       PRES   REMARKS
PARIS          PTCLDY    72  64  78 SE6       29.99S
CLARKSVILLE    NOT AVBL
TYLER          CLEAR     73  69  87 SE3       29.97S
LONGVIEW       CLEAR     71  68  90 CALM      29.97S
PALESTINE      PTSUNNY   73  71  96 CALM      29.97S
NACOGDOCHES    CLEAR     68  64  88 CALM      29.97S
$$

TEXAS HILL COUNTRY AND EDWARDS PLATEAU

CITY           SKY/WX    TMP DP  RH WIND       PRES   REMARKS
LLANO          PTSUNNY   73  73 100 E3        29.98F
HORSESHOE BAY  PTSUNNY   73  73 100 CALM      29.95F
KERRVILLE      LGT RAIN  73  71  94 S5        29.97S
FREDERICKSBRG  CLOUDY    73  71  94 CALM      29.97S
ROCKSPRINGS    SUNNY     72  70  94 SE8       30.00S
HONDO          CLOUDY    76  72  87 E8        29.95S
UVALDE         PTSUNNY   75  73  92 E7        29.93S
DEL RIO        CLOUDY    79  71  76 E12       29.88F
$$

SOUTHEAST TEXAS

CITY           SKY/WX    TMP DP  RH WIND       PRES   REMARKS
COLLEGE STN    MOCLDY    74  72  93 NE5       29.95R
CALDWELL       MOSUNNY   73  73 100 CALM      29.97S
CROCKETT       SUNNY     75  73  94 CALM      29.98F
BRENHAM        PTCLDY    74  73  96 CALM      29.94S
HUNTSVILLE     CLEAR     71  69  93 CALM      29.95S
CONROE         MOCLDY    71  70  96 CALM      29.95R
HOUSTON BUSH   PTCLDY    74  73  97 CALM      29.92S
HOUSTON HOBBY  MOCLDY    76  74  93 CALM      29.91R
PERLAND        CLOUDY    78  75  90 CALM      29.92R
WHARTON        MOSUNNY   74  73  96 NE3       29.92S
$$

THE UPPER TEXAS COAST

CITY           SKY/WX    TMP DP  RH WIND       PRES   REMARKS
ORANGE           N/A    N/A N/A N/A CALM      29.94S FOG
PORT ARTHUR    CLEAR     76  71  85 E7        29.92S
GALVESTON      CLEAR     81  72  74 E12       29.91S
ANGLETON       MOCLDY    76  74  93 E5        29.90S
BAY CITY       MOSUNNY  N/A N/A N/A NE3       29.90R
$$

TEXAS COASTAL BEND, RIO GRANDE PLAINS DEEP SOUTH TEXAS

CITY           SKY/WX    TMP DP  RH WIND       PRES   REMARKS
VICTORIA       MOCLDY    79  75  87 NE3       29.90S
BEEVILLE       FAIR      75  75 100 NE5       29.89F
ROCKPORT       CLEAR     81  76  84 SE7       29.87S
PORT ARANSAS   MOSUNNY   82  75  81 SE9       29.87S
PORT LAVACA    NOT AVBL
CORPUS CHRISTI MOCLDY    79  76  90 E3        29.87S
KINGSVILLE NAS CLOUDY    77  77 100 S8        29.88R
COTULLA        MOCLDY    79  73  82 E8        29.89S
LAREDO         MOCLDY    81  81 100 E7        29.89F
BROWNSVILLE    CLOUDY    82  79  90 CALM      29.85F
PORT ISABEL    CLOUDY    82  78  88 SE6       29.85S
HEBBRONVILLE     N/A     78  76  94 E6        29.89S FOG
MCALLEN        CLOUDY    81  79  94 E5        29.85F
WESLACO        CLOUDY    82  77  86 CALM      29.85S
FALFURRIAS     PTSUNNY  N/A N/A N/A E3        29.87S
EDINBURG       CLOUDY    82  78  89 CALM      29.85F FOG
$$


USA.gov is the U.S. government's official web portal to all federal, state and local government web resources and services.